星链-11669 (STARLINK-11669)

导读 | 豆包AI

STARLINK-11669是美国SpaceX公司星链(Starlink)星座的成员卫星,于2025年4月13日发射入轨。作为星链互联网星座的组成部分,它承担着为全球提供高速低延迟宽带卫星互联网服务的任务,可为偏远地区网络覆盖、应急通信、移动网络接入等场景提供支持,是SpaceX大规模卫星互联网组网进程中部署的卫星之一,助力推进全球卫星互联网的覆盖密度与服务能力建设。

基本信息
目录编号:
63548
目录名称:
STARLINK-11669
国际标识:
2025-075A
轨道中心:
EARTH
卫星名称:
星链-11669
卫星全名:
星链-11669 (STARLINK-11669)
卫星状态:
在轨 (已飞行384 天)
发射日期:
2025-04-13 UTC
国别 :
美国 (US)
星等 :
--
轨道信息
数据来源 国际轨道数据
星历时间: 2026-05-02T05:50:25+0800
12小时前
查看轨道信息
半长轴: 6734.485km
偏心率: 0.0000971
轨道倾角: 43.000°
近地点辐角 21.657°
升交点赤经 192.573°
平近点角 338.434°
近地点: 355.694km
远地点: 357.002km
周期: 91.668分钟
每日圈数: 15.708915
详细信息
固有亮度:
5
最大亮度:
2.5
卫星平台:
Starlink V1.0
覆盖范围:
全球
运营商:
太空探索技术公司
运营商所在国:
美国
制造商(研发单位):
太空探索技术公司
制造商所在国:
美国
使用方式:
暂无
卫星简介
Starlink 计划是 SpaceX 推出的全球卫星互联网项目,通过发射低轨道卫星,为全球尤其是偏远地区提供高速、低延迟的互联网服务。自 2019 年起,Starlink 已部署数千颗卫星,旨在缩小全球数字鸿沟,推动互联网普及。该项目还为军事、航空等行业提供通信支持,带来广泛经济效益。
2D轨道图
3D轨道图
轨道高度分析图
轨道倾角分析图
轨道综合分析图
查看轨道综合分析图